Hourly Weather Minsk

Today, 31 July, Saturday

Time Temperature Precipitation Wind Pressure Humidity
00:00 +18°C° 0 mm 3 mps 736 mmHg 76%
01:00 +17°C° 0 mm 3 mps 736 mmHg 78%
02:00 +16°C° 0 mm 3 mps 736 mmHg 80%
03:00 +16°C° 0 mm 3 mps 736 mmHg 80%
04:00 +14°C° 0 mm 3 mps 736 mmHg 80%
05:00 +14°C° 0 mm 3 mps 736 mmHg 81%
06:00 +17°C° 0 mm 3 mps 736 mmHg 76%
07:00 +18°C° 0 mm 4 mps 737 mmHg 71%
08:00 +20°C° 0 mm 4 mps 737 mmHg 66%
09:00 +21°C° 0 mm 4 mps 737 mmHg 61%
10:00 +23°C° 0 mm 5 mps 737 mmHg 57%
11:00 +25°C° 0 mm 5 mps 737 mmHg 53%
12:00 +26°C° 0 mm 5 mps 737 mmHg 51%
13:00 +27°C° 0 mm 5 mps 737 mmHg 49%
14:00 +27°C° 0 mm 5 mps 737 mmHg 47%
15:00 +27°C° 0 mm 4 mps 737 mmHg 50%
16:00 +27°C° 0 mm 4 mps 737 mmHg 53%
17:00 +27°C° 0 mm 3 mps 737 mmHg 56%
18:00 +25°C° 0 mm 2 mps 737 mmHg 62%
19:00 +24°C° 0 mm 1 mps 737 mmHg 67%
20:00 +22°C° 0 mm 1 mps 736 mmHg 72%
21:00 +22°C° 0.1 mm 1 mps 736 mmHg 74%
22:00 +20°C° 0.1 mm 2 mps 737 mmHg 75%
23:00 +20°C° 0.1 mm 3 mps 737 mmHg 77%

Tomorrow, 1 August, Sunday

Time Temperature Precipitation Wind Pressure Humidity
00:00 +19°C° 0.3 mm 3 mps 737 mmHg 82%
01:00 +19°C° 0.3 mm 3 mps 736 mmHg 88%
02:00 +19°C° 0.3 mm 3 mps 736 mmHg 94%
03:00 +18°C° 0 mm 3 mps 736 mmHg 94%
04:00 +18°C° 0 mm 3 mps 737 mmHg 95%
05:00 +17°C° 0 mm 3 mps 737 mmHg 96%
06:00 +19°C° 0 mm 3 mps 737 mmHg 89%
07:00 +20°C° 0 mm 3 mps 737 mmHg 82%
08:00 +21°C° 0 mm 4 mps 738 mmHg 75%
09:00 +22°C° 0 mm 4 mps 738 mmHg 67%
10:00 +25°C° 0 mm 4 mps 738 mmHg 59%
11:00 +26°C° 0 mm 4 mps 738 mmHg 50%
12:00 +26°C° 0 mm 4 mps 738 mmHg 48%
13:00 +27°C° 0 mm 4 mps 738 mmHg 46%
14:00 +28°C° 0 mm 4 mps 738 mmHg 44%
15:00 +27°C° 0 mm 4 mps 738 mmHg 46%
16:00 +27°C° 0 mm 3 mps 737 mmHg 49%
17:00 +27°C° 0 mm 3 mps 737 mmHg 51%
18:00 +25°C° 0 mm 3 mps 737 mmHg 57%
19:00 +24°C° 0 mm 2 mps 737 mmHg 62%
20:00 +21°C° 0 mm 2 mps 737 mmHg 68%
21:00 +20°C° 0.5 mm 2 mps 737 mmHg 75%
22:00 +19°C° 0.5 mm 2 mps 736 mmHg 82%
23:00 +18°C° 0.5 mm 2 mps 736 mmHg 89%

Day after tomorrow, 2 August, Monday

Time Temperature Precipitation Wind Pressure Humidity
00:00 +18°C° 0.8 mm 2 mps 736 mmHg 90%
01:00 +19°C° 0.8 mm 1 mps 736 mmHg 92%
02:00 +19°C° 0.8 mm 1 mps 735 mmHg 93%
03:00 +19°C° 2.7 mm 1 mps 735 mmHg 95%
04:00 +18°C° 2.7 mm 1 mps 734 mmHg 96%
05:00 +17°C° 2.7 mm 2 mps 733 mmHg 98%
06:00 +18°C° 0.8 mm 2 mps 733 mmHg 97%
07:00 +18°C° 0.8 mm 2 mps 733 mmHg 96%
08:00 +18°C° 0.8 mm 2 mps 733 mmHg 95%
09:00 +19°C° 0.3 mm 3 mps 733 mmHg 91%
10:00 +20°C° 0.3 mm 3 mps 733 mmHg 86%
11:00 +21°C° 0.3 mm 4 mps 734 mmHg 82%
12:00 +20°C° 1 mm 4 mps 734 mmHg 86%
13:00 +19°C° 1 mm 4 mps 734 mmHg 90%
14:00 +16°C° 1 mm 5 mps 734 mmHg 95%
15:00 +16°C° 1.3 mm 5 mps 734 mmHg 95%
16:00 +15°C° 1.3 mm 5 mps 734 mmHg 95%
17:00 +14°C° 1.3 mm 6 mps 735 mmHg 95%
18:00 +15°C° 0.3 mm 5 mps 735 mmHg 94%
19:00 +15°C° 0.3 mm 4 mps 735 mmHg 93%
20:00 +16°C° 0.3 mm 3 mps 736 mmHg 92%
21:00 +16°C° 0.1 mm 3 mps 736 mmHg 93%
22:00 +16°C° 0.1 mm 3 mps 736 mmHg 93%
23:00 +16°C° 0.1 mm 3 mps 737 mmHg 94%

3 August, Tuesday

Time Temperature Precipitation Wind Pressure Humidity
00:00 +14°C° 0 mm 3 mps 737 mmHg 94%
01:00 +14°C° 0 mm 3 mps 737 mmHg 94%
02:00 +14°C° 0 mm 3 mps 737 mmHg 94%
03:00 +13°C° 0 mm 3 mps 737 mmHg 93%
04:00 +13°C° 0 mm 3 mps 738 mmHg 93%
05:00 +12°C° 0 mm 3 mps 738 mmHg 93%
06:00 +14°C° 0 mm 3 mps 738 mmHg 88%
07:00 +15°C° 0 mm 4 mps 738 mmHg 82%
08:00 +17°C° 0 mm 4 mps 739 mmHg 76%
09:00 +19°C° 0 mm 5 mps 739 mmHg 70%
10:00 +20°C° 0 mm 6 mps 739 mmHg 64%
11:00 +21°C° 0 mm 6 mps 739 mmHg 57%
12:00 +21°C° 0.4 mm 6 mps 739 mmHg 60%
13:00 +21°C° 0.4 mm 6 mps 739 mmHg 63%
14:00 +20°C° 0.4 mm 6 mps 740 mmHg 66%
15:00 +20°C° 0.5 mm 6 mps 740 mmHg 69%
16:00 +20°C° 0.5 mm 5 mps 740 mmHg 72%
17:00 +19°C° 0.5 mm 5 mps 740 mmHg 76%
18:00 +18°C° 0.4 mm 4 mps 740 mmHg 81%
19:00 +17°C° 0.4 mm 3 mps 740 mmHg 86%
20:00 +16°C° 0.4 mm 3 mps 741 mmHg 91%
21:00 +14°C° 0 mm 3 mps 741 mmHg 91%
22:00 +14°C° 0 mm 3 mps 741 mmHg 91%
23:00 +13°C° 0 mm 3 mps 741 mmHg 92%

4 August, Wednesday

Time Temperature Precipitation Wind Pressure Humidity
00:00 +14°C° 0 mm 2 mps 741 mmHg 91%
01:00 +14°C° 0 mm 2 mps 741 mmHg 91%
02:00 +13°C° 0 mm 2 mps 742 mmHg 91%
03:00 +13°C° 0 mm 2 mps 742 mmHg 91%
04:00 +13°C° 0 mm 2 mps 742 mmHg 91%
05:00 +13°C° 0 mm 2 mps 742 mmHg 90%
06:00 +14°C° 0 mm 2 mps 742 mmHg 86%
07:00 +16°C° 0 mm 2 mps 742 mmHg 82%
08:00 +17°C° 0 mm 2 mps 742 mmHg 78%
09:00 +18°C° 0.1 mm 2 mps 743 mmHg 73%
10:00 +20°C° 0.1 mm 3 mps 743 mmHg 67%
11:00 +21°C° 0.1 mm 3 mps 743 mmHg 61%
12:00 +22°C° 0.1 mm 3 mps 742 mmHg 57%
13:00 +22°C° 0.1 mm 3 mps 742 mmHg 53%
14:00 +24°C° 0.1 mm 2 mps 742 mmHg 49%
15:00 +23°C° 0.1 mm 2 mps 742 mmHg 53%
16:00 +23°C° 0.1 mm 2 mps 742 mmHg 58%
17:00 +21°C° 0.1 mm 3 mps 742 mmHg 63%
18:00 +20°C° 0.4 mm 2 mps 742 mmHg 71%
19:00 +18°C° 0.4 mm 2 mps 742 mmHg 80%
20:00 +16°C° 0.4 mm 1 mps 741 mmHg 88%
21:00 +16°C° 0 mm 2 mps 741 mmHg 89%
22:00 +16°C° 0 mm 2 mps 741 mmHg 90%
23:00 +15°C° 0 mm 2 mps 741 mmHg 90%

5 August, Thursday

Time Temperature Precipitation Wind Pressure Humidity
00:00 +15°C° 0 mm 2 mps 741 mmHg 91%
01:00 +15°C° 0 mm 2 mps 741 mmHg 93%
02:00 +15°C° 0 mm 2 mps 741 mmHg 94%
03:00 +15°C° 0.1 mm 2 mps 741 mmHg 94%
04:00 +15°C° 0.1 mm 2 mps 741 mmHg 95%
05:00 +15°C° 0.1 mm 2 mps 741 mmHg 96%
06:00 +16°C° 0 mm 2 mps 741 mmHg 93%
07:00 +17°C° 0 mm 2 mps 741 mmHg 90%
08:00 +18°C° 0 mm 2 mps 741 mmHg 87%
09:00 +20°C° 0 mm 3 mps 741 mmHg 81%
10:00 +21°C° 0 mm 3 mps 740 mmHg 76%
11:00 +22°C° 0 mm 3 mps 740 mmHg 70%
12:00 +22°C° 0 mm 3 mps 740 mmHg 71%
13:00 +22°C° 0 mm 3 mps 739 mmHg 73%
14:00 +22°C° 0 mm 3 mps 739 mmHg 74%
15:00 +21°C° 0.5 mm 3 mps 738 mmHg 75%
16:00 +21°C° 0.5 mm 2 mps 738 mmHg 77%
17:00 +21°C° 0.5 mm 2 mps 737 mmHg 78%
18:00 +20°C° 2.7 mm 3 mps 736 mmHg 84%
19:00 +19°C° 2.7 mm 5 mps 736 mmHg 90%
20:00 +17°C° 2.7 mm 6 mps 735 mmHg 95%
21:00 +17°C° 1.8 mm 6 mps 735 mmHg 96%
22:00 +17°C° 1.8 mm 6 mps 734 mmHg 96%
23:00 +17°C° 1.8 mm 6 mps 734 mmHg 97%
Show more